www.pogodaiklimat.ru

Погода и климат >> Архив погоды >> Канада >> Dubawnt Lake


ПОГОДА в Dubawnt Lake

  • Прогноз погоды в Dubawnt Lake
  • Монитор погоды в Dubawnt Lake
  • Климат города

АРХИВ ПОГОДЫ в Dubawnt Lake

Время (UTC), дата Ветер
(напр.,м/с)
 
Видим.   Явления Облачность Т
(С)
Тd
(С)
f
(%)
Тe
(С)
Тes
(С)
Комфортность P
(гПа)
Po
(гПа)
Тmin
(С)
Tmax
(С)
R
(мм)
R24
(мм)
S
(см)
15 17.06 В 3 16 км 10/10 200 м
[]
+7.9 +6.6 91 +5 +5 1009.5 947.9
18 17.06 ЮВ 4 16 км 10/10 200 м
[]
+9.1 +6.6 84 +6 +6 1010.0 948.4 +7.2 +9.1
21 17.06 В 3 16 км 10/10 300 м
[]
+11.0 +6.7 75 +9 +9 1010.6 949.0
00 18.06 ЮВ 4 16 км 10/10 300 м
[]
+11.6 +7.7 77 +10 +10 1011.1 949.5 +7.2 +11.9
03 18.06 ЮВ 3 16 км 10/10 600 м
[]
+11.0 +8.0 82 +9 +9 1011.7 950.1
06 18.06 Ю 4 6000 м слаб. дождь 10/10 300 м
[]
+10.3 +9.1 92 +8 +8 1011.7 950.1 +7.2 +11.9
09 18.06 Ю 2 16 км {осадки} н/о +10.2 +9.8 97 +9 +9 1011.4 949.9 +7.2 +11.9
12 18.06 З 3 16 км {осадки} 10/10 200 м
[]
+11.3 +10.7 96 +9 +9 1012.0 950.6 +10.0 +11.9 0.8
15 18.06 ЮЗ 3 16 км ясно +14.0 +10.6 80 +13 +20 1012.0 950.7
18 18.06 СЗ 3 16 км ясно +18.7 +4.3 39 +19 +30 1011.0 950.0 +8.8 +19.0
21 18.06 Ю 4 16 км 5/0 2000 м
[]
+20.4 +5.1 37 +21 +27 комфорт 1010.3 949.4
00 19.06 ЮЗ 5 16 км гроза 10/10 1500 м
[]
+12.5 +9.5 82 +10 +10 1012.0 950.6 +10.0 +21.0
03 19.06 ЮЗ 4 16 км {осадки} 10/0
[]
+12.4 +9.6 83 +10 +10 1011.9 950.7
06 19.06 ЮЗ 4 16 км слаб. дождь 10/10 1500 м
[]
+11.4 +9.6 89 +9 +9 1012.1 951.1 +10.0 +21.0 2 1
09 19.06 З 3 16 км {осадки} 9/0
[]
+10.4 +9.2 92 +8 +8 1011.9 950.9
12 19.06 З 2 16 км 9/0
[]
+10.2 +8.8 91 +9 +10 1013.3 951.8 +9.8 +21.0 1
15 19.06 СЗ 1 16 км н/о +14.0 +9.5 74 +14 +14 1013.9 952.6 +9.8 +14.0
18 19.06 С 3 16 км 9/9 1500 м
[]
+17.6 +7.2 50 +18 +19 1014.0 952.8 +9.8 +19.2
21 19.06 С 6 16 км слаб. дождь 9/9 1500 м
[]
+17.3 +7.9 54 +17 +17 1014.6 953.3
00 20.06 С 2 16 км ясно +19.8 +5.4 39 +21 +25 комфорт 1014.5 953.3 +9.8 +20.0
03 20.06 СЗ 1 16 км ясно +13.6 +8.4 71 +14 +14 1015.7 954.3
06 20.06 ЮЗ 1 16 км 3/0
[]
+8.7 +7.6 93 +8 +8 1015.2 953.8 +8.3 +20.0 21
09 20.06 ЮЗ 2 16 км ясно +5.2 +4.8 97 +2 +2 1014.9 953.3
12 20.06 ЮЗ 2 16 км ясно +9.3 +8.0 92 +7 +9 1014.3 953.1 +4.1 +20.0
15 20.06 Ю 2 16 км ясно +18.5 +7.7 49 +20 +28 1013.4 952.4
18 20.06 Ю 5 16 км 9/0 2000 м
[]
+19.9 +4.3 36 +20 +24 1012.0 950.9 +4.1 +21.8
21 20.06 Ю 8 16 км ясно +21.8 +6.2 36 +22 +25 комфорт 1010.4 949.3
00 21.06 Ю 5 16 км 9/0
[]
+19.8 +6.2 41 +20 +22 1008.9 948.0 +4.1 +22.6
03 21.06 ЮВ 4 16 км 10/0
[]
+17.1 +6.4 49 +17 +17 1006.9 946.5
06 21.06 ЮВ 3 16 км 10/0 2000 м
[]
+14.4 +8.2 66 +14 +14 1006.1 945.7 +4.1 +22.6 181
09 21.06 Ю 2 16 км 9/0
[]
+12.6 +8.3 75 +12 +12 1004.2 943.9
12 21.06 Ю 1 16 км 10/10 1500 м
[]
+13.6 +9.3 75 +14 +14 1002.5 942.2 +10.0 +22.6
15 21.06 Ю 4 16 км ясно +18.1 +6.4 46 +18 +24 1000.3 940.3
18 21.06 ЮВ 5 16 км 9/9 1500 м
[]
+20.0 +5.2 38 +20 +21 998.7 938.7 +10.0 +20.9
21 21.06 В 3 16 км 10/0 2000 м
[]
+18.3 +7.5 49 +19 +23 998.7 938.5
00 22.06 В 3 16 км 10/0 2000 м
[]
+17.8 +7.8 52 +18 +20 998.9 938.7 +10.0 +20.9
03 22.06 С 5 16 км 10/0
[]
+16.2 +9.0 62 +15 +15 999.4 939.4
06 22.06 С 4 16 км 10/10 1500 м
[]
+13.9 +10.2 78 +12 +12 1000.4 940.3 +10.0 +20.9 5
09 22.06 С 5 16 км 10/0
[]
+12.4 +10.0 85 +10 +10 1002.4 942.0
12 22.06 С 6 16 км слаб. дождь 10/10 300 м
[]
+8.2 +7.3 94 +4 +4 1005.5 944.7 +8.2 +20.9 0.3
15 22.06 С 6 16 км слаб. дождь {осадки} 10/10 300 м
[]
+7.2 +6.3 94 +3 +3 1008.2 947.1
18 22.06 С 7 16 км {осадки} 10/10 600 м
[]
+9.2 +6.0 80 +5 +5 1010.4 949.1 +7.2 +13.9 1
21 22.06 СЗ 6 16 км {осадки} 10/10 600 м
[]
+9.6 +5.1 74 +6 +6 1012.8 951.3
00 23.06 С 6 11 км слаб. дождь {осадки} 10/10 300 м
[]
+6.0 +4.9 93 +1 +1 1016.6 954.4 +6.0 +10.3 3
03 23.06 С 5 16 км слаб. дождь {осадки} 10/10 300 м
[]
+4.4 +3.4 93 -1 -1 1019.0 956.5
06 23.06 С 3 16 км слаб. дождь {осадки} 10/10 600 м
[]
+4.8 +4.1 95 +1 +1 1019.5 957.1 +4.0 +13.9 2 111
09 23.06 С 4 16 км {осадки} 10/10 300 м
[]
+5.3 +4.3 93 +1 +1 1019.5 957.2
12 23.06 С 3 16 км 3/3 200 м
[]
+5.6 +4.2 91 +2 +3 1020.8 958.2 +4.0 +13.9
15 23.06 С 4 16 км 10/10 600 м
[]
+7.4 +3.2 75 +4 +4 1021.8 959.2
18 23.06 С 4 16 км 10/10 1000 м
[]
+9.5 +2.1 60 +7 +7 1022.2 959.7 +4.0 +10.4
21 23.06 С 3 16 км 9/9 1500 м
[]
+11.8 +0.7 46 +10 +11 1022.1 959.8
00 24.06 С 5 16 км 10/10 1500 м
[]
+12.5 +2.6 51 +11 +11 1022.6 960.3 +4.6 +13.3
03 24.06 С 2 16 км 10/10 1500 м
[]
+10.8 +2.8 58 +10 +10 1023.1 960.8
06 24.06 С 2 16 км 10/0 2000 м
[]
+8.7 +3.8 71 +7 +7 1023.9 961.5 +4.6 +13.5 20
09 24.06 С 2 16 км 9/0 2000 м
[]
+7.1 +3.5 78 +6 +6 1024.4 962.0
12 24.06 З 1 16 км 10/0 2000 м
[]
+7.5 +5.7 88 +8 +9 1025.3 962.9 +5.4 +13.5

 

Местоположение метеостанции Dubawnt Lake (Канада): широта 63.23 долгота -101.70 высота над уровнем моря 237 м.

В архиве по умолчанию представлена погода в Dubawnt Lake за последнюю неделю. Архивные данные за месяц целиком и за предыдущие месяцы, начиная с января 2011 года, Вы можете получить, выбрав интересующий диапазон дат из раскрывающегося списка и нажав кнопку "Ввод!".

Внимание! Время в таблицах - всемирное. Для получения местного времени необходимо прибавить поправку, которая в Dubawnt Lake равна -6 ч.

Смотрите также архив погоды в соседних городах и на ближайших метеорологических станциях:

Погода в Hanbury River ARS (Канада) (176 км)
Погода в Robertson Lake (Канада) (211 км)
Погода в Baker Lake Airport (Канада) (302 км)
Погода в Baker Lake Climate (Канада) (305 км)
Погода в Fort Reliance (aut) (Канада) (379 км)
Погода в Porter Lake (Канада) (387 км)
Погода в Back River MAPS (Канада) (402 км)
Погода в Lustel Ke A (Канада) (461 км)
Погода в Arviat Climate (Канада) (462 км)
Погода в Arviat (Канада) (462 км)

Пояснения к столбцам:

Ветер - указаны скорость ветра в м/с - средняя за 10 мин, порывы в срок и между сроками (в фигурных скобках) и направление, откуда дует ветер: С - северный, СВ - северо-восточный, В - восточный, ЮВ - юго-восточный, Ю - южный, ЮЗ - юго-западный, З - западный, СЗ - северо-западный.
Видимость - горизонтальная дальность видимости в метрах или километрах. При видимости от 1 до 10 км при отсутствии осадков обычно наблюдается дымка, при ухудшении видимости до 1 км и менее - туман. В сухую погоду видимость может ухудшаться дымом, пылью или мглою.
Явления - указаны атмосферные явления, наблюдавшиеся в срок или в последний час перед сроком; фигурными скобками обозначены явления, наблюдавшиеся между сроками (за 1-3 часа до срока); квадратными скобками обозначены град или гололедные отложения с указанием их диаметра в мм.
Облачность - указаны через наклонную черту общая и нижняя облачность в баллах и высота нижней границы облаков в метрах; квадратными скобками обозначены формы облаков: Ci - перистые, Cs - перисто-слоистые, Cc - перисто-кучевые, Ac - высококучевые, As - высокослоистые, Sc - слоисто-кучевые, Ns - слоисто-дождевые, Cu - кучевые, Cb - кучево-дождевые. Подробнее классификацию облаков см. в Атласе облаков (PDF).
T - Температура воздуха - температура, измеренная на высоте 2 м над землей.
Td - Температура точки росы - температура, при понижении до которой содержащийся в воздухе водяной пар достигнет насыщения.
f - Относительная влажность воздуха - влажноcть воздуха, измеренная на высоте 2 м над землей.
Te - Эффективная температура - температура, которую ощущает одетый по сезону человек в тени. Характеристика душности погоды. При расчете учитывается влияние влажности воздуха и скорости ветра на теплоощущения человека.
Tes - Эффективная температура на солнце - температура, которую ощущает человек, с поправкой на солнечный нагрев. Характеристика знойности погоды. Зависит от высоты солнца над горизонтом, облачности и скорости ветра. Ночью, в пасмурную погоду, а также при ветре 12 м/с и более поправка равна нулю.
P - Атмосферное давление - приведенное к уровню моря атмосферное давление.
Po - Атмосферное давление - измеренное на уровне метеостанции атмосферное давление.
Tmin - Минимальная температура - минимум температуры воздуха на высоте 2 м над землей.
Tmax - Максимальная температура - максимум температуры воздуха на высоте 2 м над землей.
R - Количество осадков - Количество выпавших осадков за период времени, мм. При наведении курсора мыши на число - период времени, за который выпало указанное количество осадков.
R24 - Количество осадков - Количество выпавших осадков за 24 часа, мм.
S - Снежный покров - Высота снежного покрова, см. При наведении курсора мыши на число - состояние снежного покрова и степень покрытия местности в баллах.